Weather History for KMAN - April, 2013

Change the Weather History Date:

Sunday, April 7, 2013

  Actual Average (KBOI) Record (KBOI)
Temperature  
Mean Temperature 49 °F 49 °F  
Max Temperature 57 °F 60 °F 79 °F (1977)
Min Temperature 41 °F 38 °F 23 °F (1984)
Degree Days  
Heating Degree Days 16 16  
Month to date heating degree days 116  
Since 1 July heating degree days 4911  
Cooling Degree Days 0 0  
Month to date cooling degree days 0  
Year to date cooling degree days 0  
Moisture  
Dew Point 40 °F    
Average Humidity 73    
Maximum Humidity 100    
Minimum Humidity 41    
Precipitation  
Precipitation 0.09 in 0.04 in 0.44 in (1935)
Month to date precipitation 0.28  
Year to date precipitation 3.90  
Snow  
Snow 0.00 in 0.00 in 1.50 in (1975)
Month to date snowfall 0.1  
Since 1 July snowfall 19.0  
Snow Depth -    
Sea Level Pressure  
Sea Level Pressure 29.77 in    
Wind  
Wind Speed 8 mph (South)    
Max Wind Speed 23 mph    
Max Gust Speed 31 mph    
Visibility 10 miles    
Events      
T = Trace of Precipitation, MM = Missing Value Source: NWS Daily Summary

Daily Weather History Graph

Daily Weather History Graph

Search for Another Location

Airport or City:

Trip Planner

Search our weather history database for the weather conditions in past years. The results will help you decide how hot, cold, wet, or windy it might be!

Date:

Astronomy

Apr. 07, 2013 Rise Set
Actual Time 7:16 AM MDT 8:20 PM MDT
Civil Twilight 6:47 AM MDT 8:49 PM MDT
Nautical Twilight 6:12 AM MDT 9:24 PM MDT
Astronomical Twilight 5:35 AM MDT 10:01 PM MDT
Moon 5:41 AM MDT (4/7) 5:53 PM MDT (4/7)
Length of Visible Light 14h 02m
Length of Day
13h 03m
Waning Crescent, 8% of the Moon is Illuminated
Apr 7
Waning Crescent
Apr 10
New
Apr 18
First Quarter
Apr 25
Full
May 2
Last Quarter

Hourly Weather History & Observations

Time (MDT) Temp. Windchill Dew Point Humidity Pressure Visibility Wind Dir Wind Speed Gust Speed Precip Events Conditions
12:15 AM 50.0 °F - 44.6 °F 82% 29.92 in 10.0 mi SSW 5.8 mph - N/A   Overcast
12:35 AM 48.2 °F - 46.4 °F 93% 29.92 in 7.0 mi South 4.6 mph - N/A   Overcast
12:55 AM 46.4 °F 44.3 °F 46.4 °F 100% 29.92 in 10.0 mi South 4.6 mph - 0.01 in   Overcast
1:15 AM 46.4 °F - 46.4 °F 100% 29.91 in 6.0 mi Calm Calm - 0.01 in   Overcast
1:35 AM 46.4 °F 45.2 °F 46.4 °F 100% 29.91 in 7.0 mi ESE 3.5 mph - 0.02 in   Overcast
1:55 AM 46.4 °F 44.3 °F 46.4 °F 100% 29.90 in 7.0 mi East 4.6 mph - 0.04 in   Overcast
2:15 AM 46.4 °F 44.3 °F 46.4 °F 100% 29.90 in 7.0 mi ENE 4.6 mph - 0.01 in   Overcast
2:35 AM 46.4 °F 44.3 °F 46.4 °F 100% 29.88 in 10.0 mi East 4.6 mph - 0.01 in   Overcast
2:55 AM 46.4 °F 43.5 °F 46.4 °F 100% 29.87 in 10.0 mi East 5.8 mph - 0.01 in   Overcast
3:15 AM 46.4 °F 43.5 °F 46.4 °F 100% 29.86 in 10.0 mi ESE 5.8 mph - N/A   Overcast
3:35 AM 46.4 °F 43.5 °F 46.4 °F 100% 29.85 in 10.0 mi East 5.8 mph - N/A   Overcast
3:55 AM 46.4 °F 42.9 °F 46.4 °F 100% 29.84 in 10.0 mi ESE 6.9 mph - N/A   Overcast
4:15 AM 46.4 °F 43.5 °F 46.4 °F 100% 29.83 in 10.0 mi SE 5.8 mph - N/A   Overcast
4:35 AM 46.4 °F 45.2 °F 46.4 °F 100% 29.83 in 10.0 mi SE 3.5 mph - N/A   Overcast
4:55 AM 44.6 °F 41.4 °F 44.6 °F 100% 29.83 in 5.0 mi SE 5.8 mph - 0.01 in   Overcast
5:15 AM 44.6 °F 41.4 °F 44.6 °F 100% 29.82 in 9.0 mi SE 5.8 mph - 0.01 in   Overcast
5:35 AM 44.6 °F 42.2 °F 44.6 °F 100% 29.82 in 10.0 mi SE 4.6 mph - 0.01 in   Overcast
5:55 AM 44.6 °F 41.4 °F 44.6 °F 100% 29.81 in 10.0 mi SE 5.8 mph - 0.01 in   Overcast
6:15 AM 44.6 °F 40.2 °F 44.6 °F 100% 29.80 in 10.0 mi SE 8.1 mph - N/A   Overcast
6:35 AM 44.6 °F 38.8 °F 44.6 °F 100% 29.77 in 10.0 mi SE 11.5 mph - N/A   Mostly Cloudy
6:55 AM 44.6 °F 40.2 °F 44.6 °F 100% 29.79 in 10.0 mi East 8.1 mph - N/A   Overcast
7:15 AM 44.6 °F 39.7 °F 44.6 °F 100% 29.78 in 10.0 mi SE 9.2 mph - N/A   Scattered Clouds
7:35 AM 44.6 °F 39.2 °F 44.6 °F 100% 29.79 in 10.0 mi ESE 10.4 mph - N/A   Mostly Cloudy
7:55 AM 46.4 °F 41.5 °F 46.4 °F 100% 29.79 in 10.0 mi SE 10.4 mph - N/A   Overcast
8:15 AM 46.4 °F 41.9 °F 46.4 °F 100% 29.78 in 10.0 mi SE 9.2 mph - N/A   Overcast
8:35 AM 46.4 °F 41.1 °F 46.4 °F 100% 29.77 in 10.0 mi SE 11.5 mph - N/A   Overcast
8:55 AM 46.4 °F 40.7 °F 46.4 °F 100% 29.76 in 10.0 mi SE 12.7 mph 18.4 mph N/A   Overcast
9:15 AM 50.0 °F - 48.2 °F 94% 29.76 in 10.0 mi SE 8.1 mph 18.4 mph N/A   Scattered Clouds
9:35 AM 53.6 °F - 46.4 °F 77% 29.76 in 10.0 mi SE 6.9 mph - N/A   Partly Cloudy
9:55 AM 53.6 °F - 46.4 °F 77% 29.74 in 10.0 mi East 12.7 mph - N/A   Partly Cloudy
10:15 AM 55.4 °F - 44.6 °F 67% 29.74 in 10.0 mi SW 16.1 mph 21.9 mph N/A   Mostly Cloudy
10:35 AM 57.2 °F - 35.6 °F 44% 29.74 in 10.0 mi SW 20.7 mph 28.8 mph N/A   Mostly Cloudy
10:55 AM 57.2 °F - 35.6 °F 44% 29.74 in 10.0 mi SW 23.0 mph 29.9 mph N/A   Mostly Cloudy
11:15 AM 57.2 °F - 35.6 °F 44% 29.74 in 10.0 mi WSW 13.8 mph 26.5 mph N/A   Scattered Clouds
11:35 AM 57.2 °F - 35.6 °F 44% 29.74 in 10.0 mi WSW 17.3 mph 31.1 mph N/A   Partly Cloudy
11:55 AM 57.2 °F - 33.8 °F 41% 29.74 in 10.0 mi WSW 19.6 mph 31.1 mph N/A   Scattered Clouds
12:15 PM 57.2 °F - 35.6 °F 44% 29.74 in 10.0 mi WNW 15.0 mph 25.3 mph N/A   Mostly Cloudy
12:55 PM 50.0 °F - 37.4 °F 62% 29.76 in 6.0 mi WSW 13.8 mph 27.6 mph 0.01 in   Mostly Cloudy
1:15 PM 53.6 °F - 35.6 °F 51% 29.74 in 10.0 mi West 12.7 mph 18.4 mph N/A   Partly Cloudy
1:35 PM 55.4 °F - 33.8 °F 44% 29.73 in 10.0 mi WNW 15.0 mph 23.0 mph N/A   Partly Cloudy
1:55 PM 53.6 °F - 39.2 °F 58% 29.75 in 8.0 mi WSW 19.6 mph 31.1 mph N/A   Mostly Cloudy
2:15 PM 50.0 °F - 39.2 °F 66% 29.73 in 10.0 mi SW 3.5 mph - N/A   Mostly Cloudy
2:35 PM 53.6 °F - 37.4 °F 54% 29.74 in 10.0 mi SW 10.4 mph - N/A   Mostly Cloudy
2:55 PM 50.0 °F - 33.8 °F 54% 29.72 in 10.0 mi SW 10.4 mph 28.8 mph N/A   Mostly Cloudy
3:15 PM 53.6 °F - 32.0 °F 44% 29.72 in 10.0 mi SW 12.7 mph 16.1 mph N/A   Partly Cloudy
3:35 PM 53.6 °F - 35.6 °F 51% 29.71 in 10.0 mi SW 9.2 mph - N/A   Partly Cloudy
3:55 PM 53.6 °F - 37.4 °F 54% 29.71 in 10.0 mi SW 3.5 mph - N/A   Scattered Clouds
4:15 PM 57.2 °F - 35.6 °F 44% 29.69 in 10.0 mi Calm Calm - N/A   Partly Cloudy
4:35 PM 55.4 °F - 35.6 °F 47% 29.69 in 10.0 mi SW 9.2 mph - N/A   Partly Cloudy
4:55 PM 55.4 °F - 33.8 °F 44% 29.69 in 10.0 mi NNW 16.1 mph 19.6 mph N/A   Mostly Cloudy
5:15 PM 55.4 °F - 32.0 °F 41% 29.68 in 10.0 mi NW 6.9 mph - N/A   Scattered Clouds
5:35 PM 55.4 °F - 33.8 °F 44% 29.68 in 10.0 mi ENE 4.6 mph - N/A   Scattered Clouds
5:55 PM 53.6 °F - 37.4 °F 54% 29.69 in 10.0 mi SW 11.5 mph 17.3 mph N/A   Mostly Cloudy
6:15 PM 53.6 °F - 35.6 °F 51% 29.70 in 10.0 mi NNW 15.0 mph 26.5 mph N/A   Mostly Cloudy
6:35 PM 50.0 °F - 35.6 °F 58% 29.70 in 10.0 mi North 13.8 mph 18.4 mph N/A   Mostly Cloudy
6:55 PM 50.0 °F - 35.6 °F 58% 29.70 in 10.0 mi North 10.4 mph 17.3 mph N/A   Scattered Clouds
7:15 PM 50.0 °F - 32.0 °F 50% 29.70 in 10.0 mi North 10.4 mph 20.7 mph N/A   Partly Cloudy
7:35 PM 48.2 °F - 32.0 °F 54% 29.70 in 10.0 mi NNE 9.2 mph 18.4 mph N/A   Partly Cloudy
7:55 PM 48.2 °F - 33.8 °F 58% 29.69 in 10.0 mi NE 6.9 mph - N/A   Partly Cloudy
8:15 PM 46.4 °F 42.9 °F 35.6 °F 66% 29.69 in 10.0 mi NE 6.9 mph - N/A   Clear
8:35 PM 46.4 °F 45.2 °F 35.6 °F 66% 29.71 in 10.0 mi North 3.5 mph - N/A   Clear
8:55 PM 46.4 °F - 35.6 °F 66% 29.73 in 10.0 mi Calm Calm - N/A   Mostly Cloudy
9:15 PM 46.4 °F - 35.6 °F 66% 29.73 in 10.0 mi Calm Calm - N/A   Overcast
9:35 PM 46.4 °F 42.9 °F 33.8 °F 62% 29.73 in 10.0 mi NNW 6.9 mph - N/A   Overcast
9:55 PM 46.4 °F 42.9 °F 35.6 °F 66% 29.72 in 10.0 mi NW 6.9 mph - N/A   Overcast
10:15 PM 46.4 °F 43.5 °F 32.0 °F 57% 29.73 in 10.0 mi NW 5.8 mph - N/A   Overcast
10:35 PM 46.4 °F 41.9 °F 32.0 °F 57% 29.73 in 10.0 mi NW 9.2 mph - N/A   Overcast
10:55 PM 44.6 °F 40.2 °F 32.0 °F 61% 29.72 in 10.0 mi NW 8.1 mph - N/A   Overcast
11:15 PM 44.6 °F 39.2 °F 32.0 °F 61% 29.73 in 10.0 mi NW 10.4 mph - N/A   Mostly Cloudy
11:35 PM 41.0 °F 35.8 °F 32.0 °F 70% 29.72 in 10.0 mi NW 8.1 mph - N/A   Partly Cloudy
11:55 PM 41.0 °F 35.8 °F 30.2 °F 65% 29.72 in 10.0 mi WNW 8.1 mph - N/A   Clear